Wind_Speed
21 21 19 17 17 17 17 17 17 15 14 16 16 16 15 16 16 17 17 17 16 16 15 14 13 13 12 12 12 11 11 12 12 11 11 10 10 10 11 10 9 10 10 10
21 20 18 18 18 18 18 18 17 16 16 17 18 19 18 18 18 18 19 18 17 17 16 16 14 13 13 13 13 13 12 13 13 12 12 11 11 10 11 10 10 10 10 10
20 18 19 20 19 19 19 19 18 17 17 19 19 21 20 18 18 18 18 18 18 17 16 16 15 14 14 14 14 13 13 13 13 13 14 13 12 11 11 11 10 10 11 11
20 20 20 21 21 21 20 19 19 19 20 20 20 21 20 19 18 18 18 19 19 18 17 17 16 16 15 15 15 14 14 15 15 14 14 14 13 12 12 11 11 11 12 12
20 20 21 21 20 21 20 19 20 20 21 22 22 23 21 20 20 20 19 19 20 20 19 19 18 17 16 16 16 15 16 16 15 15 15 14 14 13 13 13 13 13 13 13
19 20 22 22 20 21 21 22 22 22 23 24 23 24 22 21 21 21 21 20 21 21 20 20 19 18 17 16 16 16 16 16 15 15 15 15 14 14 14 15 14 14 14 15
20 21 22 22 20 20 22 23 23 24 24 23 22 25 23 20 21 21 21 21 20 19 19 19 19 18 19 18 17 16 16 16 16 16 16 16 16 16 16 16 16 16 16 17
21 22 22 21 21 20 21 23 24 24 23 22 23 24 21 19 19 20 21 20 20 19 19 20 19 19 20 19 18 17 17 17 17 17 17 17 17 18 18 18 18 18 18 18
21 21 22 22 22 22 20 22 22 24 24 24 24 23 22 21 22 22 21 21 22 21 20 19 19 20 20 20 20 19 18 18 19 19 19 19 19 19 19 19 20 20 19 18
21 22 22 23 23 23 22 22 23 25 25 26 26 24 23 22 22 23 23 23 22 20 18 18 19 20 21 21 21 21 20 20 19 20 20 21 21 21 20 20 20 20 20 20
23 23 21 22 24 24 23 23 24 25 26 26 25 25 23 22 22 23 23 23 22 20 20 20 21 22 22 22 22 23 23 22 21 21 21 21 22 22 22 21 21 21 21 21
23 24 23 23 24 24 24 24 24 25 26 26 25 25 24 24 23 22 22 22 21 21 20 21 22 23 23 24 24 23 23 23 22 22 22 23 22 22 22 22 22 22 22 21
23 24 23 23 24 25 26 26 26 26 27 26 26 25 24 24 23 22 22 21 21 21 22 23 23 23 23 23 24 23 23 23 24 24 24 23 23 23 23 24 23 23 23 22
24 24 24 24 24 25 26 26 25 26 27 27 27 26 25 24 24 24 23 23 23 22 22 23 23 23 23 24 24 24 24 24 24 24 24 24 24 25 25 25 25 24 24 23
23 24 24 23 23 25 26 26 25 26 26 27 27 27 25 23 23 24 23 23 23 23 23 24 24 24 24 25 24 23 24 24 24 24 24 25 25 25 26 26 26 25 24 23
23 24 24 24 23 25 25 25 26 26 27 27 27 26 25 24 23 23 23 23 24 25 25 25 25 25 25 25 25 24 23 24 25 25 24 25 25 25 26 26 26 25 25 25
23 24 24 24 23 24 25 25 26 27 28 27 27 26 25 24 23 23 23 24 24 25 26 26 26 25 24 24 24 24 23 23 24 24 23 24 24 25 25 25 26 26 26 25
24 24 23 24 24 25 24 24 25 26 26 26 27 26 26 25 24 24 24 25 25 25 25 25 24 23 23 23 23 23 24 23 23 23 23 23 24 24 25 25 25 25 25 25
23 24 24 24 25 24 24 24 23 25 25 25 25 25 25 25 26 25 25 25 25 25 25 24 24 23 22 22 22 23 23 23 23 23 23 23 23 23 23 24 24 24 24 24
22 22 24 24 25 25 24 24 23 24 25 24 25 25 26 26 26 25 25 25 26 25 25 24 24 23 22 22 22 23 23 24 24 23 23 23 23 23 23 23 24 23 23 24
22 22 23 24 25 25 25 25 24 24 24 24 26 26 26 26 25 25 25 25 25 24 24 24 23 22 22 22 23 23 23 24 24 23 23 23 23 23 23 23 24 24 24 24
22 22 22 23 25 25 25 25 25 25 25 25 26 26 27 26 26 26 25 24 24 24 24 23 23 22 22 22 22 23 23 23 23 23 22 23 23 23 23 23 23 24 24 24
23 23 23 24 24 24 24 25 26 26 26 25 25 26 26 26 26 25 25 24 24 24 24 23 23 23 23 23 23 23 23 23 23 22 22 23 23 23 23 23 23 23 24 24
24 24 24 24 24 24 24 24 26 27 26 25 25 25 25 25 24 25 25 24 24 23 24 24 24 24 23 23 23 23 23 23 22 22 22 22 22 23 23 23 23 23 23 23
22 23 24 25 24 24 24 24 24 25 25 25 25 25 25 25 24 24 24 24 23 23 24 24 24 24 24 23 23 23 23 23 23 23 23 23 23 23 22 22 23 23 24 22
22 23 24 24 24 25 24 23 23 23 24 24 24 25 25 25 25 24 24 24 24 23 23 23 24 24 24 24 23 24 24 24 24 23 23 23 23 23 23 22 22 22 22 21
Wind_Direction
234 236 238 241 245 245 245 249 250 248 249 250 252 252 250 258 263 270 274 277 287 291 293 297 297 296 299 300 298 293 296 296 292 289 285 282 285 288 292 289 290 295 298 302
235 238 240 241 241 243 248 251 250 248 250 252 254 255 251 256 261 266 272 276 282 288 286 290 291 292 295 295 294 293 294 293 287 287 289 287 286 287 288 284 281 290 299 301
239 240 239 240 241 245 247 249 248 250 249 249 255 255 252 253 257 263 266 270 276 282 283 287 284 287 290 293 294 292 289 287 286 284 286 287 285 285 283 285 284 289 294 296
237 235 237 238 240 245 248 247 248 248 248 246 251 253 251 251 253 256 262 267 272 278 284 285 282 284 286 287 287 288 286 280 279 278 281 281 281 282 283 286 286 290 291 293
239 238 239 239 242 246 249 246 245 245 244 245 247 252 252 253 254 256 263 268 272 275 280 281 278 280 285 285 284 285 283 279 276 273 274 276 276 276 282 285 288 290 291 291
241 240 239 239 239 244 247 245 245 246 246 244 245 250 252 253 258 261 264 268 273 275 275 277 277 279 283 285 285 287 285 279 275 272 272 272 273 274 279 283 284 287 288 288
238 235 238 241 238 241 243 243 245 247 247 247 245 249 253 257 260 263 265 268 273 276 273 271 272 278 281 281 282 283 285 277 271 272 272 271 272 272 274 278 280 284 287 287
239 236 237 240 243 244 244 244 247 250 251 251 249 250 254 257 258 261 265 267 269 272 272 271 274 281 283 278 278 280 280 275 270 270 271 272 271 271 272 276 279 281 283 283
243 241 239 241 244 245 243 246 249 250 252 252 252 253 253 256 257 261 265 266 270 268 269 271 274 280 280 280 280 278 277 276 272 271 273 274 274 275 274 274 276 278 280 280
246 244 241 242 243 245 244 245 248 248 250 250 252 253 254 254 258 262 264 266 269 267 268 271 274 276 279 279 280 280 279 280 278 275 274 274 274 274 275 275 277 277 277 277
246 245 240 241 242 243 241 243 248 250 252 254 254 254 256 259 262 264 263 266 265 267 270 270 273 275 279 278 277 279 279 277 277 275 274 274 274 275 276 275 275 277 278 275
245 246 242 240 242 245 245 246 248 249 252 255 256 257 257 259 261 264 263 265 266 268 269 271 274 274 275 275 274 275 277 275 275 275 275 273 274 274 275 274 274 275 276 276
249 247 245 241 241 242 242 244 247 250 253 254 256 257 258 260 261 263 264 267 266 267 269 270 273 274 274 274 273 273 274 274 275 275 276 276 275 274 273 273 272 272 272 272
252 251 249 246 243 243 243 243 244 248 251 253 254 255 257 259 260 262 264 266 266 266 270 272 274 274 273 273 272 273 273 273 274 274 275 274 274 272 270 270 270 270 268 268
249 251 250 249 246 245 247 248 248 249 251 251 251 252 255 257 259 261 265 265 266 268 270 273 275 274 273 273 273 273 272 272 273 273 272 272 274 272 271 271 268 268 268 268
249 250 250 248 248 246 247 248 250 252 252 252 253 252 253 257 261 265 268 269 270 271 273 276 277 277 278 279 277 275 272 272 273 272 272 272 272 272 272 271 268 266 267 268
250 251 250 246 245 247 247 248 249 250 250 251 252 253 253 256 261 265 268 269 271 273 276 277 276 276 278 280 279 276 272 272 273 273 272 272 272 272 273 272 270 269 268 270
251 252 251 249 247 248 249 250 249 250 251 251 253 253 253 256 261 266 269 271 271 271 275 277 276 275 275 276 276 275 273 273 273 274 272 271 272 273 274 272 270 270 268 270
254 255 255 251 249 251 249 250 251 253 253 253 253 253 255 259 262 265 269 270 269 270 274 276 278 276 274 275 276 277 276 274 274 274 273 272 272 272 272 271 271 271 271 269
256 256 257 254 251 250 250 250 252 254 253 252 253 254 256 258 261 265 268 272 273 273 272 274 277 279 278 277 277 277 276 275 276 275 273 271 270 271 271 270 270 272 272 271
255 255 255 255 254 251 249 251 252 253 254 254 254 254 256 259 264 267 268 271 274 273 274 276 277 278 278 276 275 275 275 276 276 274 272 271 270 271 271 271 271 272 272 271
257 257 256 256 256 253 250 251 251 253 254 253 254 256 258 261 264 265 268 270 274 274 274 276 276 276 276 274 274 274 275 277 275 272 270 270 271 270 271 272 270 271 273 272
259 261 259 258 258 256 253 252 253 255 257 255 256 258 258 262 264 266 267 269 273 272 272 272 272 274 274 274 274 275 276 276 276 273 270 268 269 270 271 272 272 273 273 273
261 262 260 260 259 257 255 255 255 255 255 254 257 261 261 262 263 265 270 271 272 271 271 271 273 275 274 274 274 273 274 274 274 274 272 271 269 270 271 272 273 273 273 273
262 263 263 264 262 259 256 256 256 254 254 256 257 262 262 261 262 267 269 270 271 271 269 269 273 275 276 276 274 274 273 275 276 273 272 270 269 270 271 272 274 273 274 273
262 263 264 264 264 261 259 257 256 257 258 260 260 262 265 265 266 269 270 270 270 271 271 272 273 274 275 274 273 273 274 275 275 273 271 271 271 271 270 271 272 273 274 274
Height
5858 5861 5863 5865 5867 5868 5869 5869 5870 5871 5872 5872 5872 5873 5874 5874 5874 5875 5875 5874 5874 5874 5874 5873 5873 5873 5872 5871 5869 5869 5868 5868 5867 5867 5867 5867 5867 5867 5866 5866 5865 5865 5864 5864
5854 5857 5860 5860 5861 5862 5863 5864 5865 5867 5867 5867 5867 5868 5870 5870 5871 5871 5871 5871 5871 5871 5871 5871 5870 5870 5869 5869 5868 5866 5865 5865 5864 5864 5864 5864 5864 5864 5864 5862 5862 5862 5862 5861
5849 5853 5853 5854 5855 5857 5858 5859 5861 5862 5862 5862 5863 5864 5865 5866 5867 5867 5867 5867 5868 5868 5867 5867 5867 5867 5866 5865 5864 5864 5863 5862 5861 5861 5861 5861 5861 5861 5861 5860 5860 5859 5859 5858
5843 5846 5847 5849 5850 5852 5853 5855 5856 5856 5856 5857 5859 5858 5860 5861 5862 5862 5863 5863 5863 5863 5864 5863 5863 5863 5862 5862 5861 5860 5859 5859 5858 5858 5858 5858 5858 5858 5858 5857 5857 5856 5856 5855
5839 5841 5842 5844 5847 5848 5849 5850 5851 5851 5852 5853 5853 5853 5856 5855 5856 5857 5858 5859 5859 5859 5860 5859 5859 5858 5858 5857 5857 5856 5856 5855 5854 5854 5854 5854 5854 5855 5854 5854 5854 5853 5852 5852
5834 5836 5837 5839 5841 5842 5844 5844 5845 5846 5846 5847 5849 5849 5850 5851 5851 5852 5853 5854 5854 5855 5855 5855 5854 5854 5853 5853 5852 5852 5851 5850 5850 5850 5850 5850 5850 5851 5850 5850 5850 5849 5849 5848
5828 5830 5832 5833 5835 5837 5838 5839 5840 5840 5840 5842 5844 5843 5845 5846 5846 5847 5848 5849 5849 5849 5850 5849 5849 5848 5848 5848 5847 5847 5847 5846 5846 5846 5846 5846 5846 5846 5846 5846 5845 5844 5844 5843
5822 5825 5827 5828 5830 5831 5832 5833 5835 5835 5836 5838 5838 5838 5841 5841 5841 5842 5842 5843 5844 5844 5845 5844 5844 5844 5844 5843 5842 5842 5842 5842 5841 5841 5841 5841 5841 5841 5841 5840 5839 5838 5838 5837
5816 5819 5821 5823 5825 5826 5827 5827 5829 5830 5830 5831 5832 5833 5835 5835 5836 5836 5837 5838 5838 5839 5839 5839 5839 5839 5839 5838 5838 5838 5837 5837 5836 5836 5836 5835 5836 5836 5835 5834 5834 5834 5832 5831
5811 5814 5816 5817 5819 5820 5822 5823 5823 5823 5824 5825 5826 5828 5829 5830 5830 5831 5831 5832 5833 5833 5833 5834 5834 5834 5833 5833 5833 5832 5832 5832 5831 5831 5830 5830 5830 5830 5829 5829 5828 5828 5827 5827
5805 5808 5810 5811 5812 5814 5816 5817 5817 5818 5819 5820 5820 5824 5823 5824 5825 5825 5826 5826 5827 5827 5828 5828 5828 5828 5827 5827 5827 5826 5826 5826 5825 5825 5824 5824 5824 5823 5823 5823 5823 5822 5822 5821
5799 5801 5803 5805 5807 5808 5809 5810 5811 5812 5813 5814 5815 5819 5817 5817 5818 5819 5820 5820 5820 5821 5821 5821 5821 5821 5821 5821 5820 5820 5820 5819 5819 5818 5818 5817 5817 5817 5817 5816 5816 5816 5815 5814
5794 5795 5797 5799 5802 5802 5802 5803 5805 5806 5807 5807 5808 5812 5810 5810 5811 5812 5813 5813 5814 5814 5815 5815 5815 5814 5814 5814 5813 5813 5812 5812 5812 5811 5811 5810 5810 5810 5809 5809 5809 5809 5808 5808
5788 5789 5791 5793 5794 5795 5796 5798 5798 5799 5799 5801 5802 5803 5804 5804 5805 5806 5806 5807 5807 5808 5808 5808 5808 5808 5807 5807 5807 5806 5805 5805 5804 5804 5804 5803 5803 5802 5802 5801 5801 5801 5801 5801
5781 5783 5784 5786 5788 5788 5790 5791 5793 5793 5794 5795 5796 5797 5798 5798 5798 5799 5799 5800 5801 5801 5801 5801 5800 5801 5800 5799 5798 5798 5798 5798 5797 5797 5796 5796 5795 5794 5793 5793 5793 5793 5793 5793
5775 5776 5778 5780 5781 5782 5783 5785 5786 5787 5787 5788 5789 5790 5791 5792 5792 5792 5793 5793 5794 5794 5794 5793 5793 5792 5792 5791 5791 5791 5790 5790 5790 5789 5789 5788 5787 5787 5786 5786 5785 5785 5786 5786
5769 5770 5772 5773 5775 5775 5777 5779 5779 5780 5780 5782 5782 5784 5785 5786 5786 5786 5786 5786 5786 5786 5786 5785 5785 5784 5784 5784 5783 5783 5783 5782 5782 5781 5781 5780 5780 5779 5779 5778 5778 5778 5778 5778
5762 5763 5764 5766 5768 5769 5773 5772 5772 5773 5774 5775 5776 5777 5779 5780 5780 5780 5780 5779 5778 5778 5778 5777 5777 5777 5777 5776 5776 5775 5775 5774 5774 5773 5773 5772 5772 5771 5771 5771 5771 5771 5771 5771
5755 5756 5757 5759 5760 5762 5764 5764 5765 5766 5767 5768 5769 5770 5772 5772 5773 5773 5772 5771 5771 5771 5770 5770 5770 5769 5769 5769 5768 5768 5767 5767 5766 5766 5765 5765 5764 5764 5764 5763 5763 5763 5764 5764
5749 5749 5751 5751 5752 5754 5758 5758 5758 5760 5760 5762 5762 5764 5764 5765 5765 5766 5765 5764 5764 5764 5763 5763 5763 5763 5762 5762 5761 5761 5760 5759 5759 5759 5758 5758 5757 5757 5757 5756 5756 5756 5756 5756
5742 5743 5744 5744 5745 5747 5749 5750 5752 5753 5755 5755 5755 5756 5757 5758 5759 5759 5758 5758 5757 5757 5757 5757 5757 5757 5756 5755 5754 5754 5753 5753 5752 5751 5751 5751 5750 5750 5750 5749 5749 5749 5749 5749
5735 5736 5737 5737 5738 5742 5741 5743 5744 5745 5746 5747 5748 5749 5750 5751 5751 5751 5751 5751 5751 5751 5750 5750 5750 5750 5749 5748 5748 5747 5747 5746 5745 5744 5744 5744 5744 5743 5743 5742 5742 5742 5742 5742
5728 5729 5729 5731 5733 5733 5734 5735 5737 5737 5739 5740 5741 5742 5743 5743 5744 5744 5744 5744 5744 5744 5744 5743 5743 5743 5742 5742 5741 5740 5740 5739 5738 5737 5737 5737 5737 5737 5736 5736 5735 5735 5735 5735
5721 5721 5722 5723 5724 5725 5727 5728 5729 5730 5731 5732 5734 5734 5735 5735 5736 5737 5737 5737 5737 5737 5737 5737 5736 5736 5735 5734 5734 5733 5733 5732 5731 5731 5730 5730 5730 5730 5729 5729 5729 5729 5728 5728
5715 5715 5715 5716 5717 5718 5720 5721 5722 5724 5725 5725 5726 5727 5727 5728 5729 5729 5730 5729 5729 5729 5729 5729 5729 5728 5728 5727 5727 5727 5726 5725 5724 5724 5724 5723 5723 5723 5722 5722 5722 5721 5721 5720
5708 5708 5708 5709 5710 5711 5713 5714 5716 5717 5717 5718 5718 5719 5720 5720 5721 5722 5722 5722 5722 5722 5722 5722 5722 5721 5721 5720 5720 5719 5719 5718 5717 5717 5716 5716 5715 5715 5715 5715 5715 5714 5714 5713